Date String (YYYY-MM-DD hh:mm:ss) UTC,Instrument flags,Ambient pressure (hPa),Sample flow (lpm),Bypass flow (lpm),Sample temperature (°C),Ambient temperature (°C),ASC tube jacket temperature (°C),LED temperature (°C),Box temperature (°C),Sample RH (%),Span deviation,Mass concentration (μg/m³),Mass concentration (μg/m³),Mass concentration (μg/m³)
DateTimeUTC,F1_M11,P_M11,Q1_M11,Q2_M11,T1_M11,T2_M11,T3_M11,T4_M11,T5_M11,U1_M11,ZSPAN_M11,X0_M11,X2_M11,X1_M11
2022-07-14 12:00:00,,0829.2,5.00,0.00,29.5,27.1,00.0,38.3,31.2,20.4,0000.0,0006.21,0003.42,0002.90
2022-07-14 12:01:00,,0829.2,5.00,0.00,29.5,27.3,00.0,38.3,31.2,20.5,0000.0,0005.98,0003.39,0002.87
2022-07-14 12:02:00,,0829.3,5.00,0.00,29.5,27.5,00.0,38.3,31.2,20.8,0000.0,0006.03,0003.38,0002.84
2022-07-14 12:03:00,,0829.3,5.01,0.00,29.5,27.6,00.0,38.3,31.3,20.6,0000.0,0006.12,0003.37,0002.81
2022-07-14 12:04:00,,0829.2,5.00,0.00,29.5,27.8,00.0,38.3,31.3,20.5,0000.0,0005.75,0003.35,0002.77
2022-07-14 12:05:00,,0829.3,5.00,0.00,29.5,28.0,00.0,38.3,31.3,20.5,0000.0,0005.45,0003.33,0002.75
2022-07-14 12:06:00,,0829.3,5.00,0.00,29.5,28.1,00.0,38.3,31.4,20.4,0000.0,0005.80,0003.30,0002.73
2022-07-14 12:07:00,,0829.3,5.00,0.00,29.5,28.2,00.0,38.3,31.4,20.4,0000.0,0006.04,0003.32,0002.73
2022-07-14 12:08:00,,0829.3,5.00,0.00,29.6,28.3,00.0,38.3,31.5,20.2,0000.0,0006.05,0003.32,0002.72
2022-07-14 12:09:00,,0829.3,5.00,0.00,29.6,28.4,00.0,38.4,31.5,20.2,0000.0,0006.82,0003.33,0002.72
2022-07-14 12:10:00,,0829.3,5.01,0.00,29.6,28.5,00.0,38.4,31.5,20.1,0000.0,0007.37,0003.34,0002.71
2022-07-14 12:11:00,,0829.3,5.01,0.00,29.7,28.6,00.0,38.4,31.6,20.0,0000.0,0007.45,0003.35,0002.70
2022-07-14 12:12:00,,0829.2,5.00,0.00,29.7,28.6,00.0,38.4,31.6,20.0,0000.0,0007.47,0003.34,0002.69
2022-07-14 12:13:00,,0829.2,5.00,0.00,29.7,28.7,00.0,38.4,31.7,20.0,0000.0,0007.49,0003.32,0002.68
2022-07-14 12:14:00,,0829.3,5.00,0.00,29.8,28.8,00.0,38.4,31.7,19.9,0000.0,0007.41,0003.31,0002.67
2022-07-14 12:15:00,,0829.3,5.00,0.00,29.8,28.8,00.0,38.5,31.7,19.8,0000.0,0007.36,0003.30,0002.66
2022-07-14 12:16:00,,0829.3,5.00,0.00,29.8,28.8,00.0,38.5,31.8,19.8,0000.0,0007.40,0003.29,0002.66
2022-07-14 12:17:00,,0829.3,5.00,0.00,29.8,28.1,00.0,38.4,31.7,19.8,0000.0,0007.09,0003.30,0002.67
2022-07-14 12:18:00,,0829.3,5.00,0.00,29.8,27.3,00.0,38.4,31.5,20.0,0000.0,0006.70,0003.27,0002.67
2022-07-14 12:19:00,,0829.4,5.01,0.00,29.7,27.1,00.0,38.4,31.4,20.1,0000.0,0006.58,0003.26,0002.66
2022-07-14 12:20:00,,0829.4,4.99,0.00,29.6,27.2,00.0,38.4,31.3,20.2,0000.0,0006.11,0003.24,0002.65
2022-07-14 12:21:00,,0829.4,5.00,0.00,29.6,27.3,00.0,38.3,31.3,20.3,0000.0,0006.19,0003.20,0002.65
2022-07-14 12:22:00,,0829.5,5.00,0.00,29.5,27.5,00.0,38.3,31.3,20.4,0000.0,0006.60,0003.18,0002.65
2022-07-14 12:23:00,,0829.5,5.01,0.00,29.5,27.6,00.0,38.3,31.3,20.3,0000.0,0006.79,0003.21,0002.66
2022-07-14 12:24:00,,0829.5,4.99,0.00,29.5,27.8,00.0,38.3,31.3,20.4,0000.0,0007.10,0003.26,0002.68
2022-07-14 12:25:00,,0829.5,5.00,0.00,29.5,27.9,00.0,38.3,31.4,20.4,0000.0,0008.16,0003.23,0002.69
2022-07-14 12:26:00,,0829.5,5.01,0.00,29.5,28.1,00.0,38.3,31.4,20.6,0000.0,0008.11,0003.23,0002.71
2022-07-14 12:27:00,,0829.5,5.00,0.00,29.6,28.2,00.0,38.4,31.4,20.5,0000.0,0008.74,0003.25,0002.72
2022-07-14 12:28:00,,0829.5,5.00,0.00,29.6,28.3,00.0,38.4,31.5,20.5,0000.0,0008.99,0003.28,0002.72
2022-07-14 12:29:00,,0829.5,5.00,0.00,29.6,28.4,00.0,38.4,31.5,20.4,0000.0,0009.07,0003.30,0002.72
2022-07-14 12:30:00,,0829.5,5.00,0.00,29.6,28.5,00.0,38.4,31.6,20.3,0000.0,0009.23,0003.30,0002.74
2022-07-14 12:31:00,,0829.8,5.01,0.00,29.7,28.6,00.0,38.4,31.6,20.3,0000.0,0009.19,0003.34,0002.76
2022-07-14 12:32:00,,0829.7,5.00,0.00,29.7,28.6,00.0,38.4,31.6,20.3,0000.0,0009.06,0003.36,0002.78
2022-07-14 12:33:00,,0829.8,5.00,0.00,29.7,28.7,00.0,38.4,31.7,20.6,0000.0,0008.78,0003.39,0002.79
2022-07-14 12:34:00,,0829.8,5.00,0.00,29.8,28.8,00.0,38.5,31.7,20.7,0000.0,0008.98,0003.38,0002.79
2022-07-14 12:35:00,,0829.9,5.00,0.00,29.8,28.8,00.0,38.5,31.7,20.5,0000.0,0009.28,0003.35,0002.76
2022-07-14 12:36:00,,0829.9,5.00,0.00,29.8,28.9,00.0,38.5,31.8,20.6,0000.0,0008.52,0003.36,0002.75
2022-07-14 12:37:00,,0830.0,4.99,0.00,29.9,28.5,00.0,38.5,31.8,21.5,0000.0,0008.57,0003.35,0002.75
2022-07-14 12:38:00,,0830.1,5.01,0.00,29.8,27.6,00.0,38.4,31.6,22.4,0000.0,0008.19,0003.33,0002.74
2022-07-14 12:39:00,,0830.1,4.99,0.00,29.8,27.3,00.0,38.4,31.5,23.3,0000.0,0008.40,0003.34,0002.75
2022-07-14 12:40:00,,0830.1,5.01,0.00,29.7,27.3,00.0,38.4,31.4,23.7,0000.0,0009.08,0003.38,0002.79
2022-07-14 12:41:00,,0830.0,4.99,0.00,29.6,27.5,00.0,38.4,31.4,23.6,0000.0,0009.06,0003.44,0002.83
2022-07-14 12:42:00,,0830.0,5.00,0.00,29.6,27.6,00.0,38.4,31.4,23.2,0000.0,0009.24,0003.50,0002.87
2022-07-14 12:43:00,,0830.0,5.00,0.00,29.6,27.7,00.0,38.4,31.4,23.0,0000.0,0009.11,0003.54,0002.92
2022-07-14 12:44:00,,0830.1,5.01,0.00,29.6,27.9,00.0,38.4,31.4,22.7,0000.0,0009.64,0003.59,0002.98
2022-07-14 12:45:00,,0830.1,4.99,0.00,29.6,28.0,00.0,38.4,31.4,23.0,0000.0,0009.71,0003.66,0003.05
2022-07-14 12:46:00,,0830.2,5.01,0.00,29.6,28.2,00.0,38.4,31.5,23.1,0000.0,0009.26,0003.67,0003.11
2022-07-14 12:47:00,,0830.3,5.00,0.00,29.7,28.3,00.0,38.4,31.5,23.2,0000.0,0008.99,0003.69,0003.13
2022-07-14 12:48:00,,0830.3,5.00,0.00,29.7,28.4,00.0,38.4,31.6,23.5,0000.0,0009.00,0003.73,0003.16
2022-07-14 12:49:00,,0830.4,5.00,0.00,29.7,28.5,00.0,38.4,31.6,23.6,0000.0,0009.01,0003.78,0003.19
2022-07-14 12:50:00,,0830.4,5.00,0.00,29.7,28.6,00.0,38.5,31.7,24.1,0000.0,0008.48,0003.79,0003.21
2022-07-14 12:51:00,,0830.4,5.00,0.00,29.8,28.7,00.0,38.5,31.7,24.2,0000.0,0007.96,0003.80,0003.22
2022-07-14 12:52:00,,0830.4,5.00,0.00,29.8,28.7,00.0,38.5,31.7,24.1,0000.0,0008.29,0003.83,0003.22
2022-07-14 12:53:00,,0830.3,5.01,0.00,29.8,28.8,00.0,38.5,31.7,24.1,0000.0,0008.80,0003.84,0003.22
2022-07-14 12:54:00,,0830.4,4.99,0.00,29.9,28.9,00.0,38.5,31.8,23.8,0000.0,0008.97,0003.86,0003.23
2022-07-14 12:55:00,,0830.4,5.02,0.00,29.9,28.8,00.0,38.5,31.9,24.2,0000.0,0008.68,0003.84,0003.23
2022-07-14 12:56:00,,0830.4,5.00,0.00,29.9,28.2,00.0,38.5,31.7,24.0,0000.0,0008.45,0003.84,0003.24
2022-07-14 12:57:00,,0830.4,4.99,0.00,29.8,27.4,00.0,38.5,31.6,24.1,0000.0,0008.68,0003.89,0003.25
2022-07-14 12:58:00,,0830.5,5.02,0.00,29.8,27.2,00.0,38.4,31.5,23.9,0000.0,0008.86,0003.94,0003.28
2022-07-14 12:59:00,,0830.5,4.99,0.00,29.7,27.3,00.0,38.4,31.4,24.3,0000.0,0009.08,0003.98,0003.30
